小惑星A/2019 O3

A/2019 O3

English version
Home page
Updated on June 13, 2020

---------------------------------------------------------------------

・ プロフィール

発見日 2019年7月26日
発見光度 19.30等
発見者 Q.-Z. Ye (Palomar Mountain--ZTF)

・ 写真集

・ 軌道要素

Epoch 2021 Mar. 7.0 TT = JDT 2459280.5
T 2021 Mar. 7.93365 TT                                  Rudenko
q   8.8195070            (2000.0)            P               Q
z  -0.0002546      Peri.   60.04725     +0.25492215     -0.43680881
 +/-0.0000023      Node   300.38092     -0.73853315     +0.48792489
e   1.0022452      Incl.   89.81525     +0.62416623     +0.75572969
H   10.0
From 162 observations 2019 May 14-2020 June 1, mean residual 0".4.

・ 光度変化

        H = 8.0  G = 0.15

---------------------------------------------------------------------

軌道要素はM.P.E.C. 2020-L06に掲載されたものです。
光度グラフはComet for Windowsで作成したものです。

---------------------------------------------------------------------

Copyright(C) Seiichi Yoshida (comet@aerith.net). All rights reserved.